Location: Cambronne
(49.3302°N, 2.3993°E)
Time: 23:17:07
(UTC+00:00)

Daily predictions for brighter satellites

Satellite Brightness Start Highest point End
(mag) Time Altitude Azimuth Time Altitude Azimuth Time Altitude Azimuth
Cosmos-2242 3.9 16:20:17 10° SSE 16:24:01 29° E 16:27:44 10° NNE
Cosmos 2297 Rocket 3.8 16:22:11 10° WSW 16:27:01 28° NW 16:31:52 10° NNE
ERS-2 1.5 16:25:24 10° SSE 16:28:17 65° ENE 16:31:11 10° N
ISS -0.6 16:26:58 10° W 16:29:15 17° SW 16:31:31 10° S
Spot 4 Rocket 4.4 16:25:44 10° S 16:30:51 72° WSW 16:36:01 10° NNW
Cosmos 1812 3.5 16:29:41 10° SSE 16:32:55 30° E 16:36:10 10° NNE
Lacrosse 5 3.0 16:28:55 10° S 16:33:16 30° SE 16:37:38 10° ENE
Cosmos 2221 4.4 16:34:12 10° E 16:35:17 11° E 16:36:23 10° ENE
CZ-4B R/B 4.4 16:31:39 10° ESE 16:35:42 25° ENE 16:39:40 10° N
Cosmos 2219 3.9 16:32:40 10° SW 16:38:08 51° NW 16:43:38 10° NNE
ATLAS 2AS CENTAUR R/B 3.0 16:32:19 10° NW 16:39:04 47° NE 16:45:28 10° ESE
Cosmos 1666 2.5 16:36:15 10° N 16:39:48 88° E 16:43:21 10° S
RESURS DK-1 3.5 16:36:33 10° N 16:39:55 24° NE 16:43:15 10° E
CZ-2D R/B 3.0 16:37:37 10° SSE 16:41:17 79° ENE 16:44:57 10° N
Cosmos 1833 Rocket 4.3 16:39:14 10° N 16:42:36 16° NNE 16:45:53 10° ENE
SJ-7 4.3 16:39:38 10° SSE 16:43:36 70° ENE 16:47:39 10° N
SAR-Lupe-2 3.5 16:44:09 10° SSE 16:47:43 85° ENE 16:51:20 10° NNW
COSMO-SKYMED 1 4.3 16:47:03 11° ENE 16:49:14 15° E 16:51:41 10° ESE
Cosmos 2082 4.2 16:45:23 10° SW 16:50:56 62° WNW 16:56:34 10° NNE
[s.n.71046] 3.6 16:49:12 10° SSW 16:51:30 30° SE 16:53:16 14° E
[s.n.70999] 3.6 16:49:12 10° SSW 16:51:30 30° SE 16:53:16 14° E
[s.n.71056] 3.6 16:49:12 10° SSW 16:51:31 30° SE 16:53:17 14° E
[s.n.71053] 3.6 16:49:12 10° SSW 16:51:31 30° SE 16:53:17 14° E
[s.n.71016] 3.6 16:49:13 10° SSW 16:51:31 30° SE 16:53:17 14° E
[s.n.71063] 3.6 16:49:13 10° SSW 16:51:31 30° SE 16:53:17 14° E
[s.n.71050] 3.6 16:49:13 10° SSW 16:51:31 30° SE 16:53:17 14° E
[s.n.71057] 3.6 16:49:13 10° SSW 16:51:31 30° SE 16:53:17 14° E
[s.n.71048] 3.6 16:49:13 10° SSW 16:51:31 30° SE 16:53:17 14° E
[s.n.71049] 3.6 16:49:13 10° SSW 16:51:32 30° SE 16:53:17 14° E
[s.n.71030] 3.6 16:49:13 10° SSW 16:51:32 30° SE 16:53:18 14° E
[s.n.71045] 3.6 16:49:14 10° SSW 16:51:32 30° SE 16:53:18 14° E
[s.n.71019] 3.6 16:49:14 10° SSW 16:51:32 30° SE 16:53:18 14° E
[s.n.71055] 3.6 16:49:14 10° SSW 16:51:32 30° SE 16:53:18 14° E
[s.n.71014] 3.6 16:49:14 10° SSW 16:51:32 30° SE 16:53:18 14° E
[s.n.71041] 3.6 16:49:14 10° SSW 16:51:32 30° SE 16:53:18 14° E
[s.n.71037] 3.6 16:49:14 10° SSW 16:51:32 30° SE 16:53:18 14° E
[s.n.71032] 3.6 16:49:14 10° SSW 16:51:32 30° SE 16:53:19 14° E
[s.n.70936] 3.6 16:49:15 10° SSW 16:51:34 30° SE 16:53:19 14° E
[s.n.71036] 3.6 16:49:15 10° SSW 16:51:34 30° SE 16:53:19 14° E
[s.n.71035] 3.6 16:49:15 10° SSW 16:51:34 30° SE 16:53:19 14° E
[s.n.71012] 3.6 16:49:15 10° SSW 16:51:34 30° SE 16:53:19 14° E
Cosmos 2058 Rocket 3.8 16:47:25 10° SSW 16:51:46 57° WNW 16:56:07 10° N
CZ-2C R/B 2.5 16:50:05 10° SSE 16:53:39 82° ENE 16:57:18 10° NNW
USA 276 1.3 16:52:24 10° W 16:54:49 86° N 16:56:32 17° E
DMSP B5D2-2 4.1 16:50:01 10° NNE 16:55:12 62° E 17:00:23 10° S
Helios 1B rocket 2.7 16:51:24 10° S 16:55:19 68° WSW 16:59:16 10° NNW
ATLAS CENTAUR R/B 3.3 16:52:53 10° WNW 16:56:53 58° SW 17:04:33 10° SE
CZ-4B R/B 3.7 16:54:59 10° SSE 16:58:31 54° ENE 17:02:08 10° N
Cosmos 407 Rocket 3.4 16:53:51 10° NNW 16:59:03 80° ENE 17:04:09 10° SSE
SL-16 R/B 4.3 16:56:35 10° N 17:01:50 29° WNW 17:07:03 10° WSW
CORIOLIS 4.1 17:00:25 10° SSE 17:05:46 80° ENE 17:11:11 10° NNW
Cosmos 1844 Rocket 3.2 17:03:07 10° S 17:08:15 40° ESE 17:12:41 14° NE
Cosmos 2263 Rocket 2.9 17:04:05 10° SW 17:09:29 52° NW 17:14:58 10° NNE
Timation 2 Rocket 4.4 17:05:18 10° S 17:10:48 40° ESE 17:15:29 14° NE
Cosmos 2344 3.6 17:03:53 10° SSW 17:11:19 62° SE 17:17:46 14° NE
Cosmos 2026 Rocket 4.2 17:07:50 10° SSE 17:13:49 48° E 17:19:54 10° NNE
Cosmos 1954 Rocket 4.1 17:10:04 10° NNW 17:15:12 50° ENE 17:20:15 10° SE
Cosmos 1766 Rocket 4.1 17:11:16 10° N 17:15:14 33° ENE 17:19:09 10° SE
USA 234 4.1 17:11:35 16° ENE 17:16:01 32° SE 17:21:45 10° S
Helios 1A 3.6 17:13:01 14° NE 17:16:14 35° E 17:20:01 10° SSE
YAOGAN 1 4.0 17:17:30 18° NE 17:17:30 18° NE 17:19:45 10° NNE
Meteor 1-25 Rocket 4.2 17:11:48 10° NNW 17:17:30 88° E 17:23:05 10° S
SMAP 3.2 17:13:35 10° S 17:18:14 78° WSW 17:22:56 10° NNW
Cosmos 2251 Rocket 3.9 17:13:54 10° NNW 17:19:14 69° WSW 17:24:33 10° S
SL-08 R/B 4.5 17:18:27 20° ENE 17:19:24 21° E 17:22:56 10° SE
Cosmos 2056 Rocket 4.1 17:14:42 10° S 17:19:39 39° ESE 17:23:23 17° NE
YAOGAN 11 4.4 17:15:45 10° NNE 17:20:18 75° WNW 17:24:50 10° SSW
Cosmos 2195 Rocket 4.5 17:15:37 10° S 17:21:49 64° E 17:28:00 10° NNE
Cosmos 2227 Rocket 4.2 17:19:49 10° W 17:24:01 21° NW 17:28:15 10° N
Cosmos 2082 Rocket 4.0 17:23:51 10° N 17:26:26 13° NNE 17:26:47 13° NNE
AQUARIUS 4.3 17:24:15 10° S 17:28:43 79° WSW 17:33:13 10° NNW
Cosmos 2227 4.3 17:23:05 10° SSW 17:28:52 79° WNW 17:34:20 12° NNE
Meteor 1-31 Rocket 3.1 17:27:27 10° S 17:31:07 63° W 17:34:50 10° NNW
Nadezhda 4 Rocket 4.2 17:26:03 10° SSW 17:32:11 72° W 17:38:19 10° N
Lacrosse 4 Rocket 3.9 17:30:13 10° NW 17:33:47 26° WSW 17:37:18 10° SSW
Cosmos 1190 Rocket 4.0 17:28:56 10° NNW 17:34:17 89° WSW 17:39:34 10° SSE
Cosmos 1092 Rocket 3.9 17:29:22 10° S 17:35:27 70° E 17:41:35 10° NNE
Meteor 1-5 Rocket 4.2 17:31:42 10° N 17:37:25 67° ENE 17:43:17 10° SSE
SKYMED 2 4.0 17:35:39 25° NE 17:37:43 40° E 17:41:49 10° SSE
Meteor 2-17 Rocket 4.4 17:32:41 10° S 17:38:47 73° E 17:44:55 10° NNE
COSMOS 2455 3.6 17:33:51 10° S 17:39:00 31° ESE 17:40:47 26° E
Meteor 1-26 Rocket 4.3 17:34:46 10° S 17:40:11 52° E 17:45:47 10° NNE
Cosmos 1271 Rocket 2.8 17:36:23 10° N 17:40:12 53° ENE 17:43:59 10° SSE
Meteor 2-2 Rocket 4.3 17:34:28 10° SSW 17:40:17 85° WNW 17:46:15 10° N
Cosmos 220 Rocket 4.2 17:38:27 10° NNW 17:42:45 73° WSW 17:46:58 10° SSE
CZ-4 R/B 4.3 17:39:33 10° SSE 17:43:34 61° ENE 17:47:37 10° N
Cosmos 1371 Rocket 4.0 17:39:03 10° S 17:44:12 61° ESE 17:47:32 22° NE
Cosmos 1933 3.2 17:42:27 10° S 17:46:27 89° E 17:49:39 15° N
APEX 4.4 17:48:10 10° WSW 17:50:29 22° NW 17:51:30 18° NNW
Cosmos 1812 Rocket 4.5 17:46:58 10° SSW 17:51:11 49° WNW 17:55:28 10° N
Cosmos 1818 3.9 17:47:41 10° SW 17:53:04 64° NW 17:56:29 23° NNE
Cosmos 1420 Rocket 3.9 17:51:11 10° SSW 17:56:26 80° ESE 17:59:42 24° NNE
Cosmos 1782 3.3 17:55:41 10° SSW 17:59:31 56° WNW 18:02:51 13° N
CZ-4B R/B 4.4 18:06:32 23° N 18:06:32 23° N 18:08:15 10° N
Cosmos 1624 Rocket 3.9 18:01:33 10° SSW 18:06:46 87° ESE 18:09:27 30° NNE
Cosmos 2221 2.4 18:07:45 10° SSW 18:11:59 83° W 18:13:45 34° N
CZ-4B R/B 4.2 18:09:11 10° S 18:14:04 52° W 18:18:52 10° NNW
Lacrosse 5 1.9 18:10:52 10° WSW 18:15:55 73° NNW 18:17:08 51° NE
SL-4 R/B 3.8 18:13:29 10° SSW 18:14:27 15° S 18:14:27 15° S
RESURS DK-1 3.2 18:13:59 10° NW 18:17:58 48° WSW 18:21:55 10° S
NOAA 15 4.5 18:12:44 10° SSE 18:17:59 66° ENE 18:23:14 10° N
CZ-4B DEB 4.2 18:14:54 22° SE 18:18:27 60° ENE 18:23:55 10° N
BREEZE-M DEB (TANK) 3.6 18:17:46 10° W 18:18:37 24° W 18:18:37 24° W
Cosmos 44 Rocket 3.7 18:15:07 10° NNW 18:19:50 47° NNE 18:19:50 47° NNE
SME Rocket 4.5 18:14:38 10° SSE 18:20:48 78° ENE 18:30:33 10° NNW
Okean 3 Rocket 3.5 18:17:19 10° N 18:21:52 87° WSW 18:26:24 10° S
Radarsat Rocket 4.4 18:16:34 10° S 18:22:21 64° WSW 18:28:34 10° NNW
ADEOS 3.6 18:18:29 10° SSE 18:23:42 80° WSW 18:28:58 10° NNW
ADEOS Rocket 4.3 18:26:59 22° NNE 18:26:59 22° NNE 18:29:27 10° N
COSMO-SKYMED 1 2.8 18:24:17 37° N 18:25:53 68° WNW 18:30:10 10° SSW
Cosmos 1833 Rocket 2.7 18:22:15 10° NNW 18:27:37 56° NE 18:27:37 56° NE
Cosmos 1241 Rocket 4.4 18:21:41 10° SW 18:28:04 84° NW 18:30:24 42° NNE
Cosmos 1844 4.0 18:24:04 10° SW 18:29:47 64° WNW 18:32:29 31° NNE
ATLAS 2AS CENTAUR R/B 3.3 18:23:28 10° NW 18:30:09 55° WSW 18:36:31 10° SSE
EO 1 Delta rocket 4.4 18:30:11 10° S 18:36:29 75° W 18:41:35 10° NNW
Cosmos 1844 Rocket 3.8 18:46:56 10° WSW 18:52:09 40° NW 18:54:21 28° N
YAOGAN 1 4.2 18:54:34 27° NNW 18:54:34 27° NNW 18:56:38 10° NNW
S3M 3.9 18:47:49 10° N 18:54:01 86° W 19:00:15 10° S
SL-08 R/B 3.9 18:57:21 52° WNW 18:57:25 52° WNW 19:01:56 10° SW
Cosmos 1850 Rocket 4.3 18:53:04 10° NNW 18:57:32 62° WNW 18:57:32 62° WNW
Cosmos 1741 Rocket 4.3 18:53:21 10° NNW 18:57:59 65° NW 18:57:59 65° NW
USA 234 3.1 18:58:56 75° ENE 18:59:34 88° SSE 19:06:08 10° WSW
Cosmos 2266 Rocket 4.2 19:03:51 10° S 19:08:42 59° SSW 19:08:42 59° SSW
Cosmos 2082 Rocket 4.0 19:06:44 10° NNW 19:08:37 20° N 19:08:37 20° N
COSMOS 2455 3.3 19:18:41 10° SW 19:23:58 56° WNW 19:23:58 56° WNW
Cosmos 2344 4.3 19:19:13 10° W 19:26:06 42° NNW 19:27:47 37° N
Lacrosse 5 4.3 19:54:49 10° WNW 19:56:20 18° WNW 19:56:20 18° WNW
